"Pseudo-MPEC" for C0RVEV1

Created 2019 Dec 11 8:07:02 UT using Find_Orb

Click here for an explanation of pseudo-MPECs

 
 Astrometry: 
     C0RVEV1  C2019 11 25.29260 07 34 27.30 +40 03 29.0    ~BP8b       VNEOCP703
     C0RVEV1  C2019 11 25.29804 07 34 26.75 +40 03 19.0    ~BP8b 20.9 GVNEOCP703
     C0RVEV1  C2019 11 25.30348 07 34 26.35 +40 03 12.2    ~BP8b 20.9 GVNEOCP703

Station data:
(703) Catalina Sky Survey  (N32.417006 W110.732640)  US/Arizona.  Observers
   T. A. Pruyne, B. M. Africano, E. J. Christensen, G. A. Farneth, D. C.
   Fuls, A. R. Gibbs, A. D. Grauer, H. Gröller, J. A. Johnson, R. A.
   Kowalski, S. M. Larson, G. J. Leonard, D. Rankin, R. L. Seaman, F. C.
   Shelly. 0.68 m Schmidt + 10K CCD.

Orbital elements:  C0RVEV1
   Perihelion 2019 Sep 14.162143 +/- 72 TT =  3:53:29 (JD 2458740.662143)
Epoch 2019 Nov 25.0 TT = JDT 2458812.5   Earth MOID: 0.4590   Ma: 0.0163
M  19.87593599 +/- 57               (J2000 ecliptic)          AutoNEOCP
n   0.27667774 +/- 0.386            Peri.  106.67146 +/- 110
a   2.33249060 +/- 2.17             Node   276.56359 +/- 24
e   0.4564640 +/- 0.269             Incl.   23.69286 +/- 23
P   3.56                   H 20.2   G  0.15   U 12.1  SR
q 1.26779241 +/- 0.583    Q 3.39718879 +/- 31.7
From 3 observations 2019 Nov. 25 (15.7 min); mean residual 0".61
Residuals in arcseconds: 
191125 703  .29+  .54+    191125 703  .58-  1.1-    191125 703  .29+  .53+    

Ephemerides (geocentric):
Date (UTC) HH   RA              Dec         delta   r     elong  mag " sig PA
---- -- -- --  -------------   -----------  ------ ------ -----  --- ---- ---
2019 12 11 08  07 05 16.319   +32 16 40.98  .59530 1.5393 153.1 20.9  62d 150
2019 12 11 09  07 05 11.072   +32 15 22.65  .59534 1.5395 153.2 20.9  62d 150
2019 12 11 10  07 05 05.824   +32 14 04.30  .59537 1.5397 153.2 20.9  62d 150
2019 12 11 11  07 05 00.573   +32 12 45.92  .59541 1.5399 153.3 20.9  62d 150
2019 12 11 12  07 04 55.322   +32 11 27.54  .59545 1.5401 153.3 20.9  62d 150
2019 12 11 13  07 04 50.069   +32 10 09.13  .59548 1.5404 153.4 20.9  62d 150
2019 12 11 14  07 04 44.814   +32 08 50.71  .59552 1.5406 153.5 20.9  62d 150
2019 12 11 15  07 04 39.558   +32 07 32.27  .59556 1.5408 153.5 20.9  62d 150
2019 12 11 16  07 04 34.301   +32 06 13.81  .59560 1.5410 153.6 20.9  63d 150
2019 12 11 17  07 04 29.042   +32 04 55.34  .59564 1.5412 153.7 20.9  63d 150
2019 12 11 18  07 04 23.782   +32 03 36.85  .59568 1.5414 153.7 20.9  63d 150
2019 12 11 19  07 04 18.520   +32 02 18.34  .59572 1.5417 153.8 20.9  63d 150
2019 12 11 20  07 04 13.257   +32 00 59.81  .59576 1.5419 153.8 20.9  63d 150
2019 12 11 21  07 04 07.993   +31 59 41.27  .59580 1.5421 153.9 20.9  63d 150
2019 12 11 22  07 04 02.728   +31 58 22.72  .59584 1.5423 154.0 20.9  63d 150
2019 12 11 23  07 03 57.461   +31 57 04.15  .59588 1.5425 154.0 20.9  63d 150
2019 12 12 00  07 03 52.193   +31 55 45.56  .59593 1.5427 154.1 20.9  63d 150
2019 12 12 01  07 03 46.924   +31 54 26.95  .59597 1.5430 154.2 20.9  63d 150
2019 12 12 02  07 03 41.654   +31 53 08.33  .59601 1.5432 154.2 20.9  63d 150
2019 12 12 03  07 03 36.382   +31 51 49.70  .59605 1.5434 154.3 20.9  63d 150
2019 12 12 04  07 03 31.109   +31 50 31.05  .59610 1.5436 154.3 20.9  63d 150
2019 12 12 05  07 03 25.835   +31 49 12.38  .59614 1.5438 154.4 20.9  63d 150
2019 12 12 06  07 03 20.560   +31 47 53.70  .59619 1.5441 154.5 20.9  63d 150
2019 12 12 07  07 03 15.283   +31 46 35.00  .59623 1.5443 154.5 20.9  63d 150
2019 12 12 08  07 03 10.006   +31 45 16.29  .59628 1.5445 154.6 20.9  63d 150
2019 12 12 09  07 03 04.727   +31 43 57.56  .59632 1.5447 154.7 20.9  63d 150
2019 12 12 10  07 02 59.448   +31 42 38.82  .59637 1.5449 154.7 20.9  63d 150
2019 12 12 11  07 02 54.167   +31 41 20.07  .59642 1.5451 154.8 20.9  63d 150
2019 12 12 12  07 02 48.885   +31 40 01.30  .59646 1.5454 154.8 20.9  63d 150
2019 12 12 13  07 02 43.602   +31 38 42.51  .59651 1.5456 154.9 20.9  63d 150
2019 12 12 14  07 02 38.318   +31 37 23.71  .59656 1.5458 155.0 20.8  63d 150
2019 12 12 15  07 02 33.033   +31 36 04.90  .59661 1.5460 155.0 20.8  63d 150
2019 12 12 16  07 02 27.747   +31 34 46.08  .59666 1.5462 155.1 20.8  63d 150
2019 12 12 17  07 02 22.461   +31 33 27.24  .59671 1.5464 155.2 20.8  63d 150
2019 12 12 18  07 02 17.173   +31 32 08.38  .59676 1.5467 155.2 20.8  64d 150
2019 12 12 19  07 02 11.884   +31 30 49.51  .59681 1.5469 155.3 20.8  64d 150
2019 12 12 20  07 02 06.594   +31 29 30.63  .59686 1.5471 155.3 20.8  64d 150
2019 12 12 21  07 02 01.303   +31 28 11.74  .59691 1.5473 155.4 20.8  64d 150
2019 12 12 22  07 01 56.012   +31 26 52.83  .59696 1.5475 155.5 20.8  64d 150
2019 12 12 23  07 01 50.720   +31 25 33.91  .59701 1.5478 155.5 20.8  64d 150
2019 12 13 00  07 01 45.426   +31 24 14.98  .59706 1.5480 155.6 20.8  64d 150
2019 12 13 01  07 01 40.132   +31 22 56.03  .59712 1.5482 155.7 20.8  64d 150
2019 12 13 02  07 01 34.837   +31 21 37.08  .59717 1.5484 155.7 20.8  64d 150
2019 12 13 03  07 01 29.541   +31 20 18.11  .59722 1.5486 155.8 20.8  64d 151
2019 12 13 04  07 01 24.245   +31 18 59.12  .59728 1.5488 155.8 20.8  64d 151
2019 12 13 05  07 01 18.948   +31 17 40.13  .59733 1.5491 155.9 20.8  64d 151
2019 12 13 06  07 01 13.649   +31 16 21.12  .59739 1.5493 156.0 20.8  64d 151
2019 12 13 07  07 01 08.351   +31 15 02.10  .59744 1.5495 156.0 20.8  64d 151